This is the latest recevied weather packets stored in our database for station/object KB3VSP. If no packets are shown the sender has not sent any weather packets the latest 10 day(s).
| Time | Temp. | Humidity | Pressure | Rain* | Wind** | Luminosity | Snow |
|---|---|---|---|---|---|---|---|
| 1778008907 | 21.11° C | 57% | 1008.9 hPa | 0 mm | - | 77 W/m² | - |
| 1778008605 | 21.11° C | 58% | 1008.8 hPa | 0 mm | - | 84 W/m² | - |
| 1778008303 | 21.11° C | 58% | 1008.8 hPa | 0 mm | - | 44 W/m² | - |
| 1778007999 | 21.11° C | 57% | 1008.8 hPa | 0 mm | - | 42 W/m² | - |
| 1778007699 | 21.11° C | 58% | 1008.7 hPa | 0 mm | - | 69 W/m² | - |
| 1778007396 | 21.11° C | 57% | 1008.8 hPa | 0 mm | - | 58 W/m² | - |
| 1778007092 | 21.11° C | 57% | 1008.9 hPa | 0 mm | - | 65 W/m² | - |
| 1778006788 | 21.11° C | 56% | 1008.9 hPa | 0 mm | - | 55 W/m² | - |
| 1778006486 | 21.67° C | 56% | 1008.7 hPa | 0 mm | - | 103 W/m² | - |
| 1778006182 | 21.67° C | 55% | 1008.9 hPa | 0 mm | - | 96 W/m² | - |
| 1778005880 | 21.67° C | 54% | 1008.8 hPa | 0 mm | - | 158 W/m² | - |
| 1778005576 | 21.67° C | 54% | 1009.1 hPa | 0 mm | - | 139 W/m² | - |
| 1778005273 | 21.67° C | 53% | 1008.8 hPa | 0 mm | - | 200 W/m² | - |
| 1778004970 | 22.22° C | 54% | 1008.9 hPa | 0 mm | - | 246 W/m² | - |
| 1778004667 | 21.67° C | 54% | 1009 hPa | 0 mm | - | 465 W/m² | - |
| 1778004363 | 21.67° C | 53% | 1009.1 hPa | 0 mm | - | 577 W/m² | - |
| 1778004061 | 21.67° C | 54% | 1009 hPa | 0 mm | - | 563 W/m² | - |
| 1778003756 | 21.67° C | 56% | 1009 hPa | 0 mm | - | 602 W/m² | - |
| 1778003453 | 21.11° C | 57% | 1009 hPa | 0 mm | - | 512 W/m² | - |
| 1778003150 | 20.56° C | 59% | 1009.3 hPa | 0 mm | - | 342 W/m² | - |
| 1778002846 | 20.56° C | 58% | 1009.1 hPa | 0 mm | - | 88 W/m² | - |
| 1778002543 | 20.56° C | 57% | 1008.8 hPa | 0 mm | - | 141 W/m² | - |
| 1778002239 | 20.56° C | 56% | 1008.9 hPa | 0 mm | - | 131 W/m² | - |
| 1778001937 | 21.11° C | 57% | 1008.9 hPa | 0 mm | - | 123 W/m² | - |
| 1778001633 | 21.11° C | 57% | 1008.6 hPa | 0 mm | - | 111 W/m² | - |
* Rain latest hour (hover to see other rain measurements)
** Current wind speed in m/s (hover to see current wind gust speed)